START_TIME,STEP,MOV.,AL01,t_acc.,AL02,t_acc.,E37,t_acc.,H21,t_acc.
1979-07-22 03:00:33.960 ,6,0,0.,24.0,0.,24.0,0.,24.0,0.,24.0
1979-07-22 03:00:57.960 ,5,1,0.,24.0,0.,24.0,0.,24.0,0.,24.0
1979-07-22 03:01:21.960 ,5,0,0.,24.0,0.,24.0,1.,24.0,0.,24.0
1979-07-22 03:01:45.960 ,4,1,0.,24.0,0.,24.0,1.,24.0,0.,24.0
1979-07-22 03:02:09.960 ,4,0,1.,24.0,0.,24.0,1.,24.0,0.,24.0
1979-07-22 03:02:33.960 ,3,1,0.,24.0,0.,24.0,0.,24.0,0.,24.0
1979-07-22 03:02:57.960 ,3,0,0.,24.0,0.,24.0,0.,24.0,0.,24.0
1979-07-22 03:03:21.960 ,2,1,0.,24.0,0.,24.0,0.,24.0,0.,24.0
1979-07-22 03:03:45.960 ,2,0,0.,24.0,0.,24.0,1.,24.0,0.,24.0
1979-07-22 03:04:09.960 ,1,1,0.,24.0,0.,24.0,1.,24.0,0.,24.0
1979-07-22 03:04:33.960 ,1,0,1.,24.0,0.,24.0,0.,24.0,0.,24.0
1979-07-22 03:04:57.960 ,0,1,0.,24.0,0.,24.0,1.,24.0,0.,24.0
1979-07-22 03:05:21.960 ,0,0,0.,24.0,0.,24.0,0.,24.0,0.,24.0
1979-07-22 03:05:45.960 ,0,1,1.,24.0,0.,24.0,0.,24.0,0.,24.0
1979-07-22 03:06:09.960 ,0,0,0.,24.0,1.,24.0,0.,24.0,0.,24.0
1979-07-22 03:06:33.960 ,1,1,0.,24.0,0.,24.0,0.,24.0,0.,24.0
1979-07-22 03:06:57.960 ,1,0,1.,24.0,0.,24.0,0.,24.0,0.,24.0
1979-07-22 03:07:21.960 ,2,1,0.,24.0,0.,24.0,0.,24.0,0.,24.0
1979-07-22 03:07:45.960 ,2,0,0.,24.0,0.,24.0,1.,24.0,0.,24.0
1979-07-22 03:08:09.950 ,3,1,0.,24.0,0.,24.0,0.,24.0,0.,24.0
1979-07-22 03:08:33.960 ,3,0,0.,24.0,0.,24.0,0.,24.0,0.,24.0
1979-07-22 03:08:57.960 ,4,1,0.,24.0,0.,24.0,0.,24.0,0.,24.0
1979-07-22 03:09:21.960 ,4,0,0.,24.0,1.,24.0,0.,24.0,0.,24.0
1979-07-22 03:09:45.960 ,5,1,0.,24.0,0.,24.0,0.,24.0,0.,24.0
1979-07-22 03:10:09.960 ,5,0,0.,24.0,0.,24.0,0.,24.0,0.,24.0
1979-07-22 03:10:33.960 ,6,1,0.,24.0,0.,24.0,1.,24.0,0.,24.0
1979-07-22 03:10:57.960 ,6,0,0.,24.0,0.,24.0,0.,24.0,0.,24.0
1979-07-22 03:11:21.960 ,7,1,9.,24.0,0.,24.0,1.,24.0,0.,24.0
1979-07-22 03:11:45.960 ,7,0,24.,24.0,0.,24.0,0.,24.0,0.,24.0
1979-07-22 03:12:09.960 ,7,1,33.,24.0,0.,24.0,1.,24.0,0.,24.0
1979-07-22 03:12:33.960 ,7,0,36.,24.0,0.,24.0,0.,24.0,0.,24.0
1979-07-22 03:12:57.960 ,6,1,33.,24.0,0.,24.0,0.,24.0,0.,24.0
1979-07-22 03:13:21.960 ,6,0,0.,24.0,0.,24.0,0.,24.0,0.,24.0
1979-07-22 03:13:45.960 ,5,1,0.,24.0,0.,24.0,1.,24.0,0.,24.0
1979-07-22 03:14:09.960 ,5,0,0.,24.0,0.,24.0,0.,24.0,0.,24.0
1979-07-22 03:14:33.960 ,4,1,1.,24.0,0.,24.0,0.,24.0,0.,24.0
1979-07-22 03:14:57.960 ,4,0,0.,24.0,0.,24.0,0.,24.0,0.,24.0
1979-07-22 03:15:21.960 ,3,1,0.,24.0,1.,24.0,0.,24.0,0.,24.0
1979-07-22 03:15:45.960 ,3,0,0.,24.0,0.,24.0,1.,24.0,0.,24.0
1979-07-22 03:16:09.960 ,2,1,1.,24.0,0.,24.0,0.,24.0,0.,24.0
1979-07-22 03:16:33.960 ,2,0,0.,24.0,0.,24.0,0.,24.0,0.,24.0
1979-07-22 03:16:57.960 ,1,1,1.,24.0,0.,24.0,0.,24.0,0.,24.0
1979-07-22 03:17:21.960 ,1,0,0.,24.0,0.,24.0,0.,24.0,0.,24.0
1979-07-22 03:17:45.960 ,0,1,0.,24.0,0.,24.0,0.,24.0,0.,24.0
1979-07-22 03:18:09.960 ,0,0,0.,24.0,0.,24.0,0.,24.0,0.,24.0
1979-07-22 03:18:33.960 ,0,1,0.,24.0,0.,24.0,0.,24.0,0.,24.0
1979-07-22 03:18:57.960 ,0,0,0.,24.0,0.,24.0,0.,24.0,0.,24.0
1979-07-22 03:19:21.960 ,1,1,0.,24.0,0.,24.0,0.,24.0,0.,24.0
1979-07-22 03:19:45.960 ,1,0,0.,24.0,0.,24.0,1.,24.0,0.,24.0
1979-07-22 03:20:09.960 ,2,1,0.,24.0,0.,24.0,1.,24.0,0.,24.0
1979-07-22 03:20:33.960 ,2,0,0.,24.0,0.,24.0,1.,24.0,0.,24.0
1979-07-22 03:20:57.960 ,3,1,0.,24.0,0.,24.0,0.,24.0,0.,24.0
1979-07-22 03:21:21.960 ,3,0,1.,24.0,0.,24.0,0.,24.0,0.,24.0
1979-07-22 03:21:45.960 ,4,1,0.,24.0,0.,24.0,1.,24.0,0.,24.0
1979-07-22 03:22:09.960 ,4,0,0.,24.0,0.,24.0,0.,24.0,0.,24.0
1979-07-22 03:22:33.950 ,5,1,0.,24.0,0.,24.0,0.,24.0,0.,24.0
1979-07-22 03:22:57.950 ,0,0,0.,24.0,0.,24.0,0.,24.0,0.,24.0
1979-07-22 03:23:21.950 ,6,1,0.,24.0,0.,24.0,0.,24.0,0.,24.0
1979-07-22 03:23:45.950 ,6,0,1.,24.0,2.,24.0,0.,24.0,0.,24.0
1979-07-22 03:24:09.950 ,7,1,7.,24.0,1.,24.0,1.,24.0,0.,24.0
1979-07-22 03:24:33.950 ,7,0,29.,24.0,0.,24.0,0.,24.0,0.,24.0
1979-07-22 03:24:57.950 ,7,1,28.,24.0,0.,24.0,0.,24.0,0.,24.0
1979-07-22 03:25:21.950 ,7,0,31.,24.0,0.,24.0,0.,24.0,0.,24.0
1979-07-22 03:25:45.950 ,6,1,28.,24.0,0.,24.0,0.,24.0,0.,24.0
1979-07-22 03:26:09.950 ,6,0,0.,24.0,0.,24.0,0.,24.0,0.,24.0
1979-07-22 03:26:33.950 ,5,1,0.,24.0,0.,24.0,0.,24.0,0.,24.0
1979-07-22 03:26:57.950 ,5,0,0.,24.0,0.,24.0,0.,24.0,0.,24.0
1979-07-22 03:27:21.950 ,4,1,0.,24.0,0.,24.0,0.,24.0,0.,24.0
1979-07-22 03:27:45.950 ,4,0,0.,24.0,0.,24.0,0.,24.0,0.,24.0
1979-07-22 03:28:09.950 ,3,1,0.,24.0,0.,24.0,0.,24.0,0.,24.0
1979-07-22 03:28:33.950 ,3,0,0.,24.0,0.,24.0,0.,24.0,0.,24.0
1979-07-22 03:28:57.950 ,2,1,0.,24.0,0.,24.0,0.,24.0,0.,24.0
1979-07-22 03:29:21.950 ,2,0,0.,24.0,0.,24.0,0.,24.0,0.,24.0
1979-07-22 03:29:45.950 ,1,1,0.,24.0,0.,24.0,0.,24.0,0.,24.0
1979-07-22 03:30:09.950 ,1,0,0.,24.0,1.,24.0,1.,24.0,0.,24.0
1979-07-22 03:30:33.950 ,0,1,1.,24.0,0.,24.0,0.,24.0,0.,24.0
1979-07-22 03:30:57.950 ,0,0,0.,24.0,0.,24.0,0.,24.0,0.,24.0
1979-07-22 03:31:21.950 ,0,1,0.,24.0,0.,24.0,0.,24.0,0.,24.0
1979-07-22 03:31:45.950 ,0,0,0.,24.0,0.,24.0,0.,24.0,0.,24.0
1979-07-22 03:32:09.950 ,1,1,0.,24.0,0.,24.0,0.,24.0,0.,24.0
1979-07-22 03:32:33.950 ,1,0,0.,24.0,0.,24.0,1.,24.0,0.,24.0
1979-07-22 03:32:57.950 ,2,1,0.,24.0,0.,24.0,0.,24.0,0.,24.0
1979-07-22 03:33:21.950 ,2,0,0.,24.0,0.,24.0,0.,24.0,0.,24.0
1979-07-22 03:33:45.950 ,3,1,0.,24.0,0.,24.0,0.,24.0,0.,24.0
1979-07-22 03:34:09.950 ,3,0,0.,24.0,0.,24.0,0.,24.0,0.,24.0
1979-07-22 03:34:33.950 ,4,1,0.,24.0,1.,24.0,0.,24.0,0.,24.0
1979-07-22 03:34:57.950 ,4,0,1.,24.0,1.,24.0,1.,24.0,0.,24.0
1979-07-22 03:35:21.950 ,5,1,0.,24.0,0.,24.0,1.,24.0,0.,24.0
1979-07-22 03:35:45.950 ,5,0,0.,24.0,0.,24.0,0.,24.0,0.,24.0
1979-07-22 03:36:09.950 ,6,1,0.,24.0,0.,24.0,1.,24.0,0.,24.0
1979-07-22 03:36:33.950 ,6,0,0.,24.0,0.,24.0,0.,24.0,0.,24.0
1979-07-22 03:36:57.950 ,7,1,12.,24.0,0.,24.0,0.,24.0,0.,24.0
1979-07-22 03:37:21.950 ,7,0,34.,24.0,0.,24.0,1.,24.0,0.,24.0
1979-07-22 03:37:45.950 ,7,1,36.,24.0,0.,24.0,0.,24.0,0.,24.0
1979-07-22 03:38:09.950 ,7,0,31.,24.0,0.,24.0,0.,24.0,0.,24.0
1979-07-22 03:38:33.950 ,6,1,23.,24.0,0.,24.0,0.,24.0,0.,24.0
1979-07-22 03:38:57.950 ,6,0,0.,24.0,0.,24.0,0.,24.0,0.,24.0
1979-07-22 03:39:21.950 ,5,1,0.,24.0,0.,24.0,0.,24.0,0.,24.0
1979-07-22 03:39:45.950 ,5,0,1.,24.0,0.,24.0,0.,24.0,0.,24.0
1979-07-22 03:40:09.950 ,4,1,1.,24.0,0.,24.0,1.,24.0,0.,24.0
1979-07-22 03:40:33.950 ,4,0,0.,24.0,0.,24.0,0.,24.0,0.,24.0
1979-07-22 03:40:57.950 ,3,1,1.,24.0,1.,24.0,0.,24.0,0.,24.0
1979-07-22 03:41:21.950 ,3,0,1.,24.0,0.,24.0,0.,24.0,0.,24.0
1979-07-22 03:41:45.950 ,2,1,0.,24.0,0.,24.0,0.,24.0,0.,24.0
1979-07-22 03:42:09.950 ,2,0,0.,24.0,0.,24.0,0.,24.0,0.,24.0
1979-07-22 03:42:33.950 ,1,1,0.,24.0,0.,24.0,0.,24.0,0.,24.0
1979-07-22 03:42:57.950 ,1,0,0.,24.0,0.,24.0,0.,24.0,0.,24.0
1979-07-22 03:43:21.950 ,0,1,0.,24.0,0.,24.0,0.,24.0,0.,24.0
1979-07-22 03:43:45.950 ,0,0,0.,24.0,0.,24.0,1.,24.0,0.,24.0
1979-07-22 03:44:09.950 ,0,1,0.,24.0,0.,24.0,0.,24.0,0.,24.0
1979-07-22 03:44:33.950 ,0,0,0.,24.0,0.,24.0,0.,24.0,0.,24.0
1979-07-22 03:44:57.950 ,1,1,0.,24.0,0.,24.0,0.,24.0,0.,24.0
1979-07-22 03:45:21.950 ,1,0,1.,24.0,0.,24.0,1.,24.0,0.,24.0
1979-07-22 03:45:45.950 ,2,1,0.,24.0,0.,24.0,0.,24.0,0.,24.0
1979-07-22 03:46:09.950 ,2,0,0.,24.0,0.,24.0,1.,24.0,0.,24.0
1979-07-22 03:46:33.950 ,3,1,0.,24.0,0.,24.0,0.,24.0,0.,24.0
1979-07-22 03:46:57.950 ,3,0,0.,24.0,0.,24.0,0.,24.0,0.,24.0
1979-07-22 03:47:21.950 ,4,1,0.,24.0,0.,24.0,0.,24.0,0.,24.0
1979-07-22 03:47:45.950 ,4,0,0.,24.0,0.,24.0,0.,24.0,0.,24.0
1979-07-22 03:48:09.950 ,5,1,0.,24.0,1.,24.0,1.,24.0,0.,24.0
1979-07-22 03:48:33.950 ,5,0,0.,24.0,0.,24.0,0.,24.0,0.,24.0
1979-07-22 03:48:57.950 ,6,1,0.,24.0,0.,24.0,1.,24.0,0.,24.0
1979-07-22 03:49:21.950 ,6,0,1.,24.0,0.,24.0,0.,24.0,0.,24.0
1979-07-22 03:49:45.950 ,7,1,8.,24.0,0.,24.0,0.,24.0,0.,24.0
1979-07-22 03:50:09.950 ,7,0,42.,24.0,0.,24.0,0.,24.0,0.,24.0
1979-07-22 03:50:33.950 ,7,1,22.,24.0,0.,24.0,0.,24.0,0.,24.0
1979-07-22 03:50:57.950 ,7,0,27.,24.0,0.,24.0,0.,24.0,0.,24.0
1979-07-22 03:51:21.950 ,6,1,27.,24.0,0.,24.0,0.,24.0,0.,24.0
1979-07-22 03:51:45.950 ,6,0,0.,24.0,0.,24.0,0.,24.0,0.,24.0
1979-07-22 03:52:09.950 ,5,1,0.,24.0,2.,24.0,0.,24.0,0.,24.0
1979-07-22 03:52:33.950 ,5,0,0.,24.0,0.,24.0,0.,24.0,0.,24.0
1979-07-22 03:52:57.950 ,4,1,0.,24.0,0.,24.0,1.,24.0,0.,24.0
1979-07-22 03:53:21.950 ,4,0,0.,24.0,0.,24.0,0.,24.0,0.,24.0
1979-07-22 03:53:45.950 ,3,1,0.,24.0,1.,24.0,1.,24.0,0.,24.0
1979-07-22 03:54:09.950 ,3,0,0.,24.0,0.,24.0,1.,24.0,0.,24.0
1979-07-22 03:54:33.950 ,2,1,0.,24.0,0.,24.0,0.,24.0,0.,24.0
1979-07-22 03:54:57.950 ,2,0,1.,24.0,0.,24.0,0.,24.0,0.,24.0
1979-07-22 03:55:21.950 ,1,1,0.,24.0,1.,24.0,0.,24.0,0.,24.0
1979-07-22 03:55:45.950 ,1,0,0.,24.0,1.,24.0,0.,24.0,0.,24.0
1979-07-22 03:56:09.950 ,0,1,0.,24.0,0.,24.0,0.,24.0,0.,24.0
1979-07-22 03:56:33.950 ,0,0,0.,24.0,0.,24.0,0.,24.0,0.,24.0
1979-07-22 03:56:57.950 ,0,1,0.,24.0,1.,24.0,0.,24.0,0.,24.0
1979-07-22 03:57:21.950 ,0,0,0.,24.0,0.,24.0,0.,24.0,0.,24.0
1979-07-22 03:57:45.950 ,1,1,0.,24.0,0.,24.0,0.,24.0,0.,24.0
1979-07-22 03:58:09.950 ,1,0,0.,24.0,0.,24.0,0.,24.0,0.,24.0
1979-07-22 03:58:33.950 ,2,1,0.,24.0,0.,24.0,0.,24.0,0.,24.0
1979-07-22 03:58:57.950 ,2,0,0.,24.0,0.,24.0,0.,24.0,0.,24.0
1979-07-22 03:59:21.950 ,3,1,0.,24.0,0.,24.0,0.,24.0,0.,24.0
1979-07-22 03:59:45.950 ,3,0,1.,24.0,0.,24.0,0.,24.0,0.,24.0
1979-07-22 04:00:09.950 ,4,1,0.,24.0,0.,24.0,0.,24.0,0.,24.0
1979-07-22 04:00:33.950 ,4,0,0.,24.0,0.,24.0,0.,24.0,0.,24.0
1979-07-22 04:00:57.950 ,5,1,1.,24.0,0.,24.0,0.,24.0,0.,24.0
1979-07-22 04:01:21.950 ,5,0,0.,24.0,0.,24.0,1.,24.0,0.,24.0
1979-07-22 04:01:45.950 ,6,1,0.,24.0,0.,24.0,0.,24.0,0.,24.0
1979-07-22 04:02:09.950 ,6,0,0.,24.0,0.,24.0,0.,24.0,0.,24.0
1979-07-22 04:02:33.950 ,7,1,3.,24.0,0.,24.0,0.,24.0,0.,24.0
1979-07-22 04:02:57.950 ,7,0,38.,24.0,0.,24.0,0.,24.0,0.,24.0
1979-07-22 04:03:21.950 ,7,1,28.,24.0,0.,24.0,0.,24.0,0.,24.0
1979-07-22 04:03:45.950 ,7,0,31.,24.0,0.,24.0,0.,24.0,0.,24.0
1979-07-22 04:04:09.950 ,6,1,26.,24.0,0.,24.0,0.,24.0,0.,24.0
1979-07-22 04:04:33.950 ,6,0,0.,24.0,0.,24.0,0.,24.0,0.,24.0
1979-07-22 04:04:57.950 ,5,1,2.,24.0,0.,24.0,0.,24.0,0.,24.0
1979-07-22 04:05:21.950 ,5,0,1.,24.0,0.,24.0,0.,24.0,0.,24.0
1979-07-22 04:05:45.950 ,4,1,0.,24.0,0.,24.0,0.,24.0,0.,24.0
1979-07-22 04:06:09.950 ,4,0,0.,24.0,0.,24.0,0.,24.0,0.,24.0
1979-07-22 04:06:33.950 ,3,1,1.,24.0,0.,24.0,0.,24.0,0.,24.0
1979-07-22 04:06:57.950 ,3,0,0.,24.0,0.,24.0,0.,24.0,0.,24.0
1979-07-22 04:07:21.950 ,2,1,0.,24.0,0.,24.0,0.,24.0,0.,24.0
1979-07-22 04:07:45.950 ,2,0,0.,24.0,0.,24.0,0.,24.0,0.,24.0
1979-07-22 04:08:09.950 ,1,1,0.,24.0,0.,24.0,0.,24.0,0.,24.0
1979-07-22 04:08:33.950 ,1,0,0.,24.0,0.,24.0,0.,24.0,0.,24.0
1979-07-22 04:08:57.950 ,0,1,0.,24.0,0.,24.0,0.,24.0,0.,24.0
1979-07-22 04:09:21.950 ,0,0,0.,24.0,0.,24.0,0.,24.0,0.,24.0
1979-07-22 04:09:45.950 ,0,1,0.,24.0,0.,24.0,0.,24.0,0.,24.0
1979-07-22 04:10:09.950 ,0,0,0.,24.0,0.,24.0,0.,24.0,0.,24.0
1979-07-22 04:10:33.950 ,1,1,0.,24.0,0.,24.0,0.,24.0,0.,24.0
1979-07-22 04:10:57.950 ,1,0,0.,24.0,0.,24.0,1.,24.0,0.,24.0
1979-07-22 04:11:21.950 ,2,1,0.,24.0,1.,24.0,0.,24.0,0.,24.0
1979-07-22 04:11:45.950 ,2,0,0.,24.0,0.,24.0,1.,24.0,0.,24.0
1979-07-22 04:12:09.950 ,3,1,0.,24.0,0.,24.0,0.,24.0,0.,24.0
1979-07-22 04:12:33.950 ,3,0,0.,24.0,0.,24.0,0.,24.0,0.,24.0
1979-07-22 04:12:57.950 ,4,1,2.,24.0,0.,24.0,1.,24.0,0.,24.0
1979-07-22 04:13:21.950 ,4,0,0.,24.0,0.,24.0,0.,24.0,0.,24.0
1979-07-22 04:13:45.950 ,5,1,0.,24.0,2.,24.0,0.,24.0,0.,24.0
1979-07-22 04:14:09.950 ,5,0,0.,24.0,0.,24.0,0.,24.0,0.,24.0
1979-07-22 04:14:33.950 ,6,1,0.,24.0,0.,24.0,0.,24.0,0.,24.0
1979-07-22 04:14:57.950 ,6,0,0.,24.0,0.,24.0,0.,24.0,0.,24.0
1979-07-22 04:15:21.950 ,7,1,4.,24.0,0.,24.0,0.,24.0,0.,24.0
1979-07-22 04:15:45.950 ,7,0,26.,24.0,0.,24.0,0.,24.0,0.,24.0
1979-07-22 04:16:09.950 ,7,1,33.,24.0,0.,24.0,1.,24.0,0.,24.0
1979-07-22 04:16:33.950 ,7,0,36.,24.0,0.,24.0,1.,24.0,0.,24.0
1979-07-22 04:16:57.950 ,6,1,26.,24.0,0.,24.0,0.,24.0,0.,24.0
1979-07-22 04:17:21.950 ,6,0,1.,24.0,0.,24.0,0.,24.0,0.,24.0
1979-07-22 04:17:45.950 ,5,1,0.,24.0,0.,24.0,0.,24.0,0.,24.0
1979-07-22 04:18:09.950 ,5,0,1.,24.0,0.,24.0,0.,24.0,0.,24.0
1979-07-22 04:18:33.950 ,4,1,0.,24.0,0.,24.0,0.,24.0,0.,24.0
1979-07-22 04:18:57.950 ,4,0,0.,24.0,0.,24.0,0.,24.0,0.,24.0
1979-07-22 04:19:21.950 ,3,1,0.,24.0,0.,24.0,0.,24.0,0.,24.0
1979-07-22 04:19:45.950 ,3,0,0.,24.0,0.,24.0,0.,24.0,0.,24.0
1979-07-22 04:20:09.950 ,2,1,0.,24.0,0.,24.0,0.,24.0,0.,24.0
1979-07-22 04:20:33.950 ,2,0,0.,24.0,0.,24.0,0.,24.0,0.,24.0
1979-07-22 04:20:57.950 ,1,1,0.,24.0,0.,24.0,0.,24.0,0.,24.0
1979-07-22 04:21:21.950 ,1,0,0.,24.0,0.,24.0,0.,24.0,0.,24.0
1979-07-22 04:21:45.950 ,0,1,0.,24.0,0.,24.0,0.,24.0,0.,24.0
1979-07-22 04:22:09.950 ,0,0,0.,24.0,0.,24.0,0.,24.0,0.,24.0
1979-07-22 04:22:33.950 ,0,1,0.,24.0,0.,24.0,0.,24.0,0.,24.0
1979-07-22 04:22:57.950 ,0,0,0.,24.0,0.,24.0,1.,24.0,0.,24.0
1979-07-22 04:23:21.950 ,1,1,0.,24.0,0.,24.0,0.,24.0,0.,24.0
1979-07-22 04:23:45.950 ,1,0,0.,24.0,0.,24.0,0.,24.0,0.,24.0
1979-07-22 04:24:09.950 ,2,1,0.,24.0,0.,24.0,0.,24.0,0.,24.0
1979-07-22 04:24:33.950 ,2,0,0.,24.0,0.,24.0,0.,24.0,0.,24.0
1979-07-22 04:24:57.950 ,3,0,,0,,0,,0,,0
1979-07-22 04:25:21.950 ,0,0,0.,24.0,0.,24.0,0.,24.0,0.,24.0
1979-07-22 04:25:45.950 ,4,1,0.,24.0,0.,24.0,0.,24.0,0.,24.0
1979-07-22 04:26:09.950 ,4,0,0.,24.0,0.,24.0,0.,24.0,0.,24.0
1979-07-22 04:26:33.950 ,5,1,0.,24.0,0.,24.0,0.,24.0,0.,24.0
1979-07-22 04:26:57.950 ,5,0,1.,24.0,0.,24.0,0.,24.0,0.,24.0
1979-07-22 04:27:21.950 ,6,1,0.,24.0,0.,24.0,0.,24.0,0.,24.0
1979-07-22 04:27:45.950 ,6,0,0.,24.0,0.,24.0,0.,24.0,0.,24.0
1979-07-22 04:28:09.950 ,7,1,9.,24.0,0.,24.0,0.,24.0,0.,24.0
1979-07-22 04:28:33.950 ,7,0,31.,24.0,0.,24.0,0.,24.0,0.,24.0
1979-07-22 04:28:57.950 ,7,1,35.,24.0,0.,24.0,0.,24.0,0.,24.0
1979-07-22 04:29:21.950 ,7,0,23.,24.0,0.,24.0,1.,24.0,0.,24.0
1979-07-22 04:29:45.950 ,6,1,25.,24.0,0.,24.0,0.,24.0,0.,24.0
1979-07-22 04:30:09.950 ,6,0,0.,24.0,1.,24.0,1.,24.0,0.,24.0
1979-07-22 04:30:33.950 ,5,1,0.,24.0,0.,24.0,0.,24.0,0.,24.0
1979-07-22 04:30:57.950 ,5,0,0.,24.0,0.,24.0,0.,24.0,0.,24.0
1979-07-22 04:31:21.950 ,4,1,0.,24.0,0.,24.0,1.,24.0,0.,24.0
1979-07-22 04:31:45.950 ,4,0,0.,24.0,0.,24.0,1.,24.0,0.,24.0
1979-07-22 04:32:09.950 ,3,1,0.,24.0,0.,24.0,0.,24.0,0.,24.0
1979-07-22 04:32:33.950 ,3,0,0.,24.0,0.,24.0,1.,24.0,0.,24.0
1979-07-22 04:32:57.950 ,2,1,1.,24.0,0.,24.0,1.,24.0,0.,24.0
1979-07-22 04:33:21.950 ,2,0,0.,24.0,0.,24.0,0.,24.0,0.,24.0
1979-07-22 04:33:45.950 ,1,1,0.,24.0,0.,24.0,0.,24.0,0.,24.0
1979-07-22 04:34:09.950 ,1,0,0.,24.0,0.,24.0,0.,24.0,0.,24.0
1979-07-22 04:34:33.950 ,0,1,0.,24.0,0.,24.0,0.,24.0,0.,24.0
1979-07-22 04:34:57.950 ,0,0,0.,24.0,0.,24.0,0.,24.0,0.,24.0
1979-07-22 04:35:21.950 ,0,1,0.,24.0,0.,24.0,1.,24.0,0.,24.0
1979-07-22 04:35:45.950 ,0,0,0.,24.0,1.,24.0,1.,24.0,0.,24.0
1979-07-22 04:36:09.950 ,1,1,0.,24.0,0.,24.0,0.,24.0,0.,24.0
1979-07-22 04:36:33.950 ,1,0,0.,24.0,0.,24.0,0.,24.0,0.,24.0
1979-07-22 04:36:57.950 ,2,1,0.,24.0,0.,24.0,0.,24.0,0.,24.0
1979-07-22 04:37:21.950 ,2,0,0.,24.0,0.,24.0,0.,24.0,0.,24.0
1979-07-22 04:37:45.950 ,3,1,0.,24.0,0.,24.0,0.,24.0,0.,24.0
1979-07-22 04:38:09.950 ,3,0,0.,24.0,0.,24.0,0.,24.0,0.,24.0
1979-07-22 04:38:33.950 ,4,1,0.,24.0,0.,24.0,0.,24.0,0.,24.0
1979-07-22 04:38:57.950 ,4,0,0.,24.0,0.,24.0,0.,24.0,0.,24.0
1979-07-22 04:39:21.950 ,5,1,0.,24.0,0.,24.0,0.,24.0,0.,24.0
1979-07-22 04:39:45.950 ,5,0,0.,24.0,0.,24.0,0.,24.0,0.,24.0
1979-07-22 04:40:09.950 ,6,1,0.,24.0,0.,24.0,0.,24.0,0.,24.0
1979-07-22 04:40:33.950 ,6,0,0.,24.0,0.,24.0,0.,24.0,0.,24.0
1979-07-22 04:40:57.950 ,7,1,10.,24.0,0.,24.0,0.,24.0,0.,24.0
1979-07-22 04:41:21.950 ,7,0,29.,24.0,0.,24.0,0.,24.0,0.,24.0
1979-07-22 04:41:45.950 ,7,1,32.,24.0,0.,24.0,0.,24.0,0.,24.0
1979-07-22 04:42:09.950 ,7,0,33.,24.0,0.,24.0,0.,24.0,0.,24.0
1979-07-22 04:42:33.950 ,6,1,25.,24.0,0.,24.0,0.,24.0,0.,24.0
1979-07-22 04:42:57.950 ,6,0,0.,24.0,0.,24.0,0.,24.0,0.,24.0
1979-07-22 04:43:21.950 ,5,1,1.,24.0,0.,24.0,0.,24.0,0.,24.0
1979-07-22 04:43:45.950 ,5,0,0.,24.0,0.,24.0,0.,24.0,0.,24.0
1979-07-22 04:44:09.950 ,4,1,0.,24.0,1.,24.0,0.,24.0,0.,24.0
1979-07-22 04:44:33.950 ,4,0,0.,24.0,0.,24.0,0.,24.0,0.,24.0
1979-07-22 04:44:57.950 ,3,1,1.,24.0,0.,24.0,0.,24.0,0.,24.0
1979-07-22 04:45:21.950 ,3,0,0.,24.0,0.,24.0,0.,24.0,0.,24.0
1979-07-22 04:45:45.950 ,2,1,0.,24.0,0.,24.0,0.,24.0,0.,24.0
1979-07-22 04:46:09.950 ,2,0,0.,24.0,0.,24.0,1.,24.0,0.,24.0
1979-07-22 04:46:33.950 ,1,1,0.,24.0,0.,24.0,0.,24.0,0.,24.0
1979-07-22 04:46:57.950 ,1,0,0.,24.0,0.,24.0,0.,24.0,0.,24.0
1979-07-22 04:47:21.950 ,0,1,0.,24.0,0.,24.0,0.,24.0,0.,24.0
1979-07-22 04:47:45.950 ,0,0,0.,24.0,1.,24.0,0.,24.0,0.,24.0
1979-07-22 04:48:09.950 ,0,1,0.,24.0,0.,24.0,0.,24.0,0.,24.0
1979-07-22 04:48:33.950 ,0,0,0.,24.0,0.,24.0,0.,24.0,0.,24.0
1979-07-22 04:48:57.950 ,1,1,0.,24.0,0.,24.0,0.,24.0,0.,24.0
1979-07-22 04:49:21.950 ,1,0,0.,24.0,0.,24.0,0.,24.0,0.,24.0
1979-07-22 04:49:45.950 ,2,1,0.,24.0,0.,24.0,0.,24.0,0.,24.0
1979-07-22 04:50:09.950 ,2,0,0.,24.0,0.,24.0,0.,24.0,0.,24.0
1979-07-22 04:50:33.950 ,3,1,1.,24.0,0.,24.0,0.,24.0,0.,24.0
1979-07-22 04:50:57.950 ,3,0,2.,24.0,0.,24.0,0.,24.0,0.,24.0
1979-07-22 04:51:21.950 ,4,1,0.,24.0,2.,24.0,0.,24.0,0.,24.0
1979-07-22 04:51:45.950 ,4,0,0.,24.0,0.,24.0,0.,24.0,0.,24.0
1979-07-22 04:52:09.950 ,5,1,0.,24.0,0.,24.0,0.,24.0,0.,24.0
1979-07-22 04:52:33.950 ,5,0,0.,24.0,0.,24.0,0.,24.0,0.,24.0
1979-07-22 04:52:57.950 ,6,1,0.,24.0,0.,24.0,0.,24.0,0.,24.0
1979-07-22 04:53:21.950 ,6,0,0.,24.0,0.,24.0,0.,24.0,0.,24.0
1979-07-22 04:53:45.950 ,7,1,9.,24.0,0.,24.0,0.,24.0,0.,24.0
1979-07-22 04:54:09.950 ,7,0,37.,24.0,0.,24.0,0.,24.0,0.,24.0
1979-07-22 04:54:33.950 ,7,1,34.,24.0,0.,24.0,0.,24.0,0.,24.0
1979-07-22 04:54:57.950 ,7,0,27.,24.0,0.,24.0,0.,24.0,0.,24.0
1979-07-22 04:55:21.950 ,6,1,20.,24.0,0.,24.0,0.,24.0,0.,24.0
1979-07-22 04:55:45.950 ,6,0,0.,24.0,0.,24.0,0.,24.0,0.,24.0
1979-07-22 04:56:09.950 ,5,1,0.,24.0,0.,24.0,0.,24.0,0.,24.0
1979-07-22 04:56:33.950 ,5,0,0.,24.0,0.,24.0,0.,24.0,0.,24.0
1979-07-22 04:56:57.950 ,4,1,0.,24.0,0.,24.0,0.,24.0,0.,24.0
1979-07-22 04:57:21.950 ,4,0,0.,24.0,0.,24.0,1.,24.0,0.,24.0
1979-07-22 04:57:45.950 ,3,1,0.,24.0,0.,24.0,0.,24.0,0.,24.0
1979-07-22 04:58:09.950 ,3,0,0.,24.0,0.,24.0,0.,24.0,0.,24.0
1979-07-22 04:58:33.950 ,2,1,0.,24.0,1.,24.0,0.,24.0,0.,24.0
1979-07-22 04:58:57.950 ,2,0,0.,24.0,0.,24.0,0.,24.0,0.,24.0
1979-07-22 04:59:21.950 ,1,1,0.,24.0,0.,24.0,0.,24.0,0.,24.0
1979-07-22 04:59:45.950 ,1,0,0.,24.0,0.,24.0,0.,24.0,0.,24.0
1979-07-22 05:00:09.950 ,0,1,0.,24.0,0.,24.0,0.,24.0,0.,24.0
1979-07-22 05:00:33.950 ,0,0,1.,24.0,0.,24.0,0.,24.0,0.,24.0
1979-07-22 05:00:57.950 ,0,1,0.,24.0,0.,24.0,0.,24.0,0.,24.0
1979-07-22 05:01:21.950 ,0,0,0.,24.0,0.,24.0,0.,24.0,0.,24.0
1979-07-22 05:01:45.950 ,1,1,0.,24.0,0.,24.0,0.,24.0,0.,24.0
1979-07-22 05:02:09.950 ,1,0,0.,24.0,0.,24.0,0.,24.0,0.,24.0
1979-07-22 05:02:33.950 ,2,1,0.,24.0,0.,24.0,0.,24.0,0.,24.0
1979-07-22 05:02:57.950 ,2,0,0.,24.0,0.,24.0,1.,24.0,0.,24.0
1979-07-22 05:03:21.950 ,3,1,0.,24.0,0.,24.0,0.,24.0,0.,24.0
1979-07-22 05:03:45.950 ,3,0,0.,24.0,0.,24.0,0.,24.0,0.,24.0
1979-07-22 05:04:09.950 ,4,1,0.,24.0,0.,24.0,0.,24.0,0.,24.0
1979-07-22 05:04:33.950 ,4,0,0.,24.0,0.,24.0,1.,24.0,0.,24.0
1979-07-22 05:04:57.950 ,5,1,0.,24.0,0.,24.0,0.,24.0,0.,24.0
1979-07-22 05:05:21.950 ,5,0,1.,24.0,0.,24.0,0.,24.0,0.,24.0
1979-07-22 05:05:45.950 ,6,1,0.,24.0,0.,24.0,0.,24.0,0.,24.0
1979-07-22 05:06:09.950 ,6,0,0.,24.0,0.,24.0,0.,24.0,0.,24.0
1979-07-22 05:06:33.950 ,7,1,3.,24.0,0.,24.0,0.,24.0,0.,24.0
1979-07-22 05:06:57.950 ,7,0,32.,24.0,0.,24.0,0.,24.0,0.,24.0
1979-07-22 05:07:21.950 ,7,1,24.,24.0,0.,24.0,0.,24.0,0.,24.0
1979-07-22 05:07:45.950 ,7,0,35.,24.0,0.,24.0,0.,24.0,0.,24.0
1979-07-22 05:08:09.950 ,6,1,24.,24.0,0.,24.0,0.,24.0,0.,24.0
1979-07-22 05:08:33.950 ,6,0,0.,24.0,0.,24.0,0.,24.0,0.,24.0
1979-07-22 05:08:57.950 ,5,1,0.,24.0,0.,24.0,0.,24.0,0.,24.0
1979-07-22 05:09:21.950 ,5,0,0.,24.0,0.,24.0,0.,24.0,0.,24.0
1979-07-22 05:09:45.950 ,4,1,0.,24.0,0.,24.0,0.,24.0,0.,24.0
1979-07-22 05:10:09.950 ,4,0,0.,24.0,0.,24.0,0.,24.0,0.,24.0
1979-07-22 05:10:33.950 ,3,1,0.,24.0,0.,24.0,0.,24.0,0.,24.0
1979-07-22 05:10:57.950 ,3,0,0.,24.0,0.,24.0,0.,24.0,0.,24.0
1979-07-22 05:11:21.950 ,2,1,0.,24.0,0.,24.0,0.,24.0,0.,24.0
1979-07-22 05:11:45.950 ,2,0,0.,24.0,1.,24.0,0.,24.0,0.,24.0
1979-07-22 05:12:09.950 ,1,1,0.,24.0,1.,24.0,0.,24.0,0.,24.0
1979-07-22 05:12:33.950 ,1,0,0.,24.0,0.,24.0,0.,24.0,0.,24.0
1979-07-22 05:12:57.950 ,0,1,0.,24.0,0.,24.0,0.,24.0,0.,24.0
1979-07-22 05:13:21.950 ,0,0,0.,24.0,0.,24.0,0.,24.0,0.,24.0
1979-07-22 05:13:45.950 ,0,1,0.,24.0,0.,24.0,0.,24.0,0.,24.0
1979-07-22 05:14:09.950 ,0,0,1.,24.0,0.,24.0,0.,24.0,0.,24.0
1979-07-22 05:14:33.950 ,1,1,0.,24.0,0.,24.0,0.,24.0,0.,24.0
1979-07-22 05:14:57.950 ,1,0,0.,24.0,0.,24.0,1.,24.0,0.,24.0
1979-07-22 05:15:21.950 ,2,1,0.,24.0,0.,24.0,0.,24.0,0.,24.0
1979-07-22 05:15:45.950 ,2,0,0.,24.0,0.,24.0,0.,24.0,0.,24.0
1979-07-22 05:16:09.950 ,3,1,0.,24.0,0.,24.0,0.,24.0,0.,24.0
1979-07-22 05:16:33.950 ,3,0,0.,24.0,0.,24.0,0.,24.0,0.,24.0
1979-07-22 05:16:57.950 ,4,1,1.,24.0,0.,24.0,1.,24.0,0.,24.0
1979-07-22 05:17:21.950 ,4,0,0.,24.0,1.,24.0,0.,24.0,0.,24.0
1979-07-22 05:17:45.950 ,5,1,0.,24.0,0.,24.0,1.,24.0,0.,24.0
1979-07-22 05:18:09.950 ,5,0,0.,24.0,0.,24.0,0.,24.0,0.,24.0
1979-07-22 05:18:33.950 ,6,1,0.,24.0,0.,24.0,0.,24.0,0.,24.0
1979-07-22 05:18:57.950 ,6,0,0.,24.0,0.,24.0,1.,24.0,0.,24.0
1979-07-22 05:19:21.950 ,7,1,9.,24.0,0.,24.0,0.,24.0,0.,24.0
1979-07-22 05:19:45.950 ,7,0,24.,24.0,0.,24.0,0.,24.0,0.,24.0
1979-07-22 05:20:09.950 ,7,1,44.,24.0,0.,24.0,2.,24.0,0.,24.0
1979-07-22 05:20:33.950 ,7,0,37.,24.0,0.,24.0,0.,24.0,0.,24.0
1979-07-22 05:20:57.950 ,6,1,33.,24.0,0.,24.0,0.,24.0,0.,24.0
1979-07-22 05:21:21.950 ,6,0,0.,24.0,0.,24.0,0.,24.0,0.,24.0
1979-07-22 05:21:45.950 ,5,1,1.,24.0,0.,24.0,0.,24.0,0.,24.0
1979-07-22 05:22:09.950 ,5,0,0.,24.0,0.,24.0,0.,24.0,0.,24.0
1979-07-22 05:22:33.950 ,4,1,0.,24.0,0.,24.0,0.,24.0,0.,24.0
1979-07-22 05:22:57.950 ,4,0,0.,24.0,0.,24.0,0.,24.0,0.,24.0
1979-07-22 05:23:21.950 ,3,1,0.,24.0,0.,24.0,0.,24.0,0.,24.0
1979-07-22 05:23:45.950 ,3,0,1.,24.0,0.,24.0,0.,24.0,0.,24.0
1979-07-22 05:24:09.950 ,2,1,0.,24.0,0.,24.0,0.,24.0,0.,24.0
1979-07-22 05:24:33.950 ,2,0,0.,24.0,0.,24.0,0.,24.0,0.,24.0
1979-07-22 05:24:57.950 ,1,1,0.,24.0,0.,24.0,0.,24.0,0.,24.0
1979-07-22 05:25:21.950 ,1,0,0.,24.0,0.,24.0,0.,24.0,0.,24.0
1979-07-22 05:25:45.950 ,0,1,0.,24.0,0.,24.0,0.,24.0,0.,24.0
1979-07-22 05:26:09.950 ,0,0,0.,24.0,0.,24.0,1.,24.0,0.,24.0
1979-07-22 05:26:33.950 ,0,1,1.,24.0,0.,24.0,0.,24.0,0.,24.0
1979-07-22 05:26:57.950 ,0,0,0.,24.0,0.,24.0,0.,24.0,0.,24.0
1979-07-22 05:27:21.950 ,1,1,0.,24.0,0.,24.0,0.,24.0,0.,24.0
1979-07-22 05:27:45.950 ,1,0,0.,24.0,0.,24.0,0.,24.0,0.,24.0
1979-07-22 05:28:09.950 ,2,1,1.,24.0,0.,24.0,0.,24.0,0.,24.0
1979-07-22 05:28:33.950 ,2,0,0.,24.0,0.,24.0,0.,24.0,0.,24.0
1979-07-22 05:28:57.950 ,3,1,1.,24.0,0.,24.0,0.,24.0,0.,24.0
1979-07-22 05:29:21.950 ,3,0,0.,24.0,0.,24.0,0.,24.0,0.,24.0
1979-07-22 05:29:45.950 ,4,1,0.,24.0,0.,24.0,0.,24.0,0.,24.0
1979-07-22 05:30:09.950 ,4,0,0.,24.0,0.,24.0,0.,24.0,0.,24.0
1979-07-22 05:30:33.950 ,5,1,0.,24.0,0.,24.0,1.,24.0,0.,24.0
1979-07-22 05:30:57.950 ,5,0,1.,24.0,0.,24.0,0.,24.0,0.,24.0
1979-07-22 05:31:21.950 ,6,1,0.,24.0,0.,24.0,0.,24.0,0.,24.0
1979-07-22 05:31:45.950 ,6,0,0.,24.0,1.,24.0,1.,24.0,0.,24.0
1979-07-22 05:32:09.950 ,7,1,3.,24.0,0.,24.0,0.,24.0,0.,24.0
1979-07-22 05:32:33.950 ,7,0,36.,24.0,0.,24.0,1.,24.0,0.,24.0
1979-07-22 05:32:57.950 ,7,1,42.,24.0,0.,24.0,0.,24.0,0.,24.0
1979-07-22 05:33:21.950 ,7,0,34.,24.0,0.,24.0,0.,24.0,0.,24.0
1979-07-22 05:33:45.950 ,6,1,22.,24.0,0.,24.0,0.,24.0,0.,24.0
1979-07-22 05:34:09.950 ,6,0,0.,24.0,0.,24.0,0.,24.0,0.,24.0